Location: La Sioule Rivi�re
(46.3664°N, 3.3197°E)
Time: 12:05:44
(UTC+00:00)

Cosmos 2315 Rocket - Pass Details

Date: 29 October 2020
Orbit: 966 x 1002 km, 82.9° (Epoch: 23 November)

Event Time Altitude Azimuth Distance (km) Brightness Sun altitude
Rises 19:01:41 0° 188° (S) 3,649 7.0 -25.6°
Reaches altitude 10° 19:04:11 10° 189° (S) 2,704 6.3 -26.1°
Maximum altitude 19:10:23 85° 277° (W) 977 3.9 -27.1°
Drops below altitude 10° 19:16:37 10° 8° (N) 2,718 6.3 -28.2°
Sets 19:19:08 0° 9° (N) 3,671 7.0 -28.6°
